カタログに戻る

STARLINK-34329

運用中通信VLEO
NORAD 64256·PAYLOAD·🇺🇸 United States

打ち上げ Jun 4, 2025 から Vandenberg Space Force Base

Loading…

次のパス (今後24時間)

TLE

最新Source: CelesTrak SupGP

元期: Sep 15, 2026, 03:51 UTC

1 64256C 25120A   26258.16090278  .00026460  00000+0  78152-3 0  2580
2 64256  53.1596 310.8991 0001281  84.2804 348.8936 15.34386680    19

AllMySatでSTARLINK-34329をリアルタイム追跡

Download on the App Store